Time,TemperatureF,DewpointF,PressureIn,WindDirection,WindDirectionDegrees,WindSpeedMPH,WindSpeedGustMPH,Humidity,HourlyPrecipIn,Conditions,Clouds,dailyrainin,SoftwareType,DateUTC
2013-06-02 00:00:00,58.5,53.0,29.93,West,261,8.0,-999.0,83,-99.99,,,0.15,weatherlink.com 1.10,2013-06-02 05:00:00,
2013-06-02 00:12:00,58.2,53.0,29.93,West,275,5.0,-999.0,83,-99.99,,,0.15,weatherlink.com 1.10,2013-06-02 05:12:00,
2013-06-02 00:27:00,58.0,53.0,29.93,NW,317,2.0,-999.0,83,-99.99,,,0.15,weatherlink.com 1.10,2013-06-02 05:27:00,
2013-06-02 00:42:00,57.7,53.0,29.93,West,278,9.0,-999.0,83,-99.99,,,0.00,weatherlink.com 1.10,2013-06-02 05:42:00,
2013-06-02 01:00:00,57.4,53.0,29.93,NNW,336,9.0,-999.0,84,-99.99,,,0.00,weatherlink.com 1.10,2013-06-02 06:00:00,
2013-06-02 01:12:00,57.2,52.0,29.94,WNW,288,3.0,-999.0,84,-99.99,,,0.00,weatherlink.com 1.10,2013-06-02 06:12:00,
2013-06-02 01:27:00,57.1,53.0,29.95,NW,320,1.0,-999.0,85,-99.99,,,0.00,weatherlink.com 1.10,2013-06-02 06:27:00,
2013-06-02 01:42:00,57.0,53.0,29.95,West,271,5.0,-999.0,85,-99.99,,,0.00,weatherlink.com 1.10,2013-06-02 06:42:00,
2013-06-02 02:01:00,56.9,53.0,29.95,WNW,296,5.0,-999.0,85,-99.99,,,0.00,weatherlink.com 1.10,2013-06-02 07:01:00,
2013-06-02 02:13:00,56.7,53.0,29.95,NNW,327,8.0,-999.0,86,-99.99,,,0.00,weatherlink.com 1.10,2013-06-02 07:13:00,
2013-06-02 02:28:00,56.6,53.0,29.95,NNW,333,4.0,-999.0,86,-99.99,,,0.00,weatherlink.com 1.10,2013-06-02 07:28:00,
2013-06-02 02:43:00,56.5,52.0,29.95,West,265,2.0,-999.0,86,-99.99,,,0.00,weatherlink.com 1.10,2013-06-02 07:43:00,
2013-06-02 03:01:00,56.3,52.0,29.96,WNW,292,0.0,-999.0,86,-99.99,,,0.00,weatherlink.com 1.10,2013-06-02 08:01:00,
2013-06-02 03:13:00,56.3,52.0,29.96,WSW,252,5.0,-999.0,86,-99.99,,,0.00,weatherlink.com 1.10,2013-06-02 08:13:00,
2013-06-02 03:28:00,55.8,51.0,29.96,NNE,13,4.0,-999.0,83,-99.99,,,0.00,weatherlink.com 1.10,2013-06-02 08:28:00,
2013-06-02 03:43:00,55.4,51.0,29.96,NNW,338,5.0,-999.0,84,-99.99,,,0.00,weatherlink.com 1.10,2013-06-02 08:43:00,
2013-06-02 04:01:00,55.0,51.0,29.96,NNW,345,5.0,-999.0,85,-99.99,,,0.00,weatherlink.com 1.10,2013-06-02 09:01:00,
2013-06-02 04:13:00,54.9,51.0,29.97,WNW,296,2.0,-999.0,86,-99.99,,,0.00,weatherlink.com 1.10,2013-06-02 09:13:00,
2013-06-02 04:28:00,54.7,51.0,29.98,WNW,291,4.0,-999.0,87,-99.99,,,0.00,weatherlink.com 1.10,2013-06-02 09:28:00,
2013-06-02 04:44:00,54.5,51.0,29.98,WNW,292,5.0,-999.0,87,-99.99,,,0.00,weatherlink.com 1.10,2013-06-02 09:44:00,
2013-06-02 05:02:00,54.3,51.0,29.99,West,270,1.0,-999.0,87,-99.99,,,0.00,weatherlink.com 1.10,2013-06-02 10:02:00,
2013-06-02 05:14:00,54.3,51.0,30.01,WSW,257,4.0,-999.0,87,-99.99,,,0.00,weatherlink.com 1.10,2013-06-02 10:14:00,
2013-06-02 05:29:00,54.1,50.0,30.01,WNW,292,3.0,-999.0,87,-99.99,,,0.00,weatherlink.com 1.10,2013-06-02 10:29:00,
2013-06-02 05:44:00,53.8,48.0,30.02,NW,305,2.0,-999.0,82,-99.99,,,0.00,weatherlink.com 1.10,2013-06-02 10:44:00,
2013-06-02 06:02:00,53.6,49.0,30.02,WNW,284,4.0,-999.0,83,-99.99,,,0.00,weatherlink.com 1.10,2013-06-02 11:02:00,
2013-06-02 06:14:00,53.3,48.0,30.03,WNW,291,2.0,-999.0,82,-99.99,,,0.00,weatherlink.com 1.10,2013-06-02 11:14:00,
2013-06-02 06:29:00,53.2,48.0,30.03,WNW,302,3.0,-999.0,83,-99.99,,,0.00,weatherlink.com 1.10,2013-06-02 11:29:00,
2013-06-02 06:44:00,53.2,48.0,30.04,NNW,333,1.0,-999.0,82,-99.99,,,0.00,weatherlink.com 1.10,2013-06-02 11:44:00,
2013-06-02 07:02:00,53.2,48.0,30.04,WSW,252,3.0,-999.0,83,-99.99,,,0.00,weatherlink.com 1.10,2013-06-02 12:02:00,
2013-06-02 07:14:00,53.2,48.0,30.04,NW,312,4.0,-999.0,82,-99.99,,,0.00,weatherlink.com 1.10,2013-06-02 12:14:00,
2013-06-02 07:29:00,53.2,48.0,30.05,WNW,286,4.0,-999.0,82,-99.99,,,0.00,weatherlink.com 1.10,2013-06-02 12:29:00,
2013-06-02 07:45:00,53.3,48.0,30.05,NNW,342,0.0,-999.0,82,-99.99,,,0.00,weatherlink.com 1.10,2013-06-02 12:45:00,
2013-06-02 08:03:00,53.4,47.0,30.06,NNW,342,1.0,-999.0,79,-99.99,,,0.00,weatherlink.com 1.10,2013-06-02 13:03:00,
2013-06-02 08:15:00,53.8,48.0,30.06,NNW,336,0.0,-999.0,80,-99.99,,,0.00,weatherlink.com 1.10,2013-06-02 13:15:00,
2013-06-02 08:30:00,54.2,48.0,30.07,NNW,329,0.0,-999.0,80,-99.99,,,0.00,weatherlink.com 1.10,2013-06-02 13:30:00,
2013-06-02 08:46:00,54.0,48.0,30.08,NNW,340,1.0,-999.0,80,-99.99,,,0.00,weatherlink.com 1.10,2013-06-02 13:46:00,
2013-06-02 09:03:00,53.8,48.0,30.08,NW,313,3.0,-999.0,81,-99.99,,,0.00,weatherlink.com 1.10,2013-06-02 14:03:00,
2013-06-02 09:15:00,53.4,49.0,30.08,NW,323,4.0,-999.0,85,-99.99,,,0.00,weatherlink.com 1.10,2013-06-02 14:15:00,
2013-06-02 09:30:00,53.8,50.0,30.08,NW,323,3.0,-999.0,86,-99.99,,,0.00,weatherlink.com 1.10,2013-06-02 14:30:00,
2013-06-02 09:45:00,53.2,50.0,30.09,NE,36,6.0,-999.0,88,-99.99,,,0.00,weatherlink.com 1.10,2013-06-02 14:45:00,
2013-06-02 10:03:00,53.8,50.0,30.09,North,5,3.0,-999.0,86,-99.99,,,0.00,weatherlink.com 1.10,2013-06-02 15:03:00,
2013-06-02 10:15:00,53.4,49.0,30.09,North,5,3.0,-999.0,86,-99.99,,,0.00,weatherlink.com 1.10,2013-06-02 15:15:00,
2013-06-02 10:39:00,54.0,48.0,30.09,NW,310,0.0,-999.0,80,-99.99,,,0.00,weatherlink.com 1.10,2013-06-02 15:39:00,
2013-06-02 10:46:00,54.4,48.0,30.09,NW,311,2.0,-999.0,78,-99.99,,,0.00,weatherlink.com 1.10,2013-06-02 15:46:00,
2013-06-02 11:04:00,55.2,47.0,30.09,WNW,294,4.0,-999.0,74,-99.99,,,0.00,weatherlink.com 1.10,2013-06-02 16:04:00,
2013-06-02 11:16:00,55.7,48.0,30.10,North,355,4.0,-999.0,74,-99.99,,,0.00,weatherlink.com 1.10,2013-06-02 16:16:00,
2013-06-02 11:39:00,57.8,48.0,30.09,NNW,344,1.0,-999.0,71,-99.99,,,0.00,weatherlink.com 1.10,2013-06-02 16:39:00,
2013-06-02 11:46:00,58.9,48.0,30.09,North,355,3.0,-999.0,67,-99.99,,,0.00,weatherlink.com 1.10,2013-06-02 16:46:00,
2013-06-02 12:04:00,58.4,49.0,30.09,NNW,327,5.0,-999.0,70,-99.99,,,0.00,weatherlink.com 1.10,2013-06-02 17:04:00,
2013-06-02 12:16:00,58.2,48.0,30.09,North,355,5.0,-999.0,70,-99.99,,,0.00,weatherlink.com 1.10,2013-06-02 17:16:00,
2013-06-02 12:35:00,58.7,50.0,30.09,NNW,346,0.0,-999.0,72,-99.99,,,0.00,weatherlink.com 1.10,2013-06-02 17:35:00,
2013-06-02 12:46:00,59.2,49.0,30.10,NNE,26,0.0,-999.0,69,-99.99,,,0.00,weatherlink.com 1.10,2013-06-02 17:46:00,
2013-06-02 13:04:00,59.7,49.0,30.10,NW,306,4.0,-999.0,68,-99.99,,,0.00,weatherlink.com 1.10,2013-06-02 18:04:00,
2013-06-02 13:16:00,58.9,48.0,30.10,NNW,348,0.0,-999.0,68,-99.99,,,0.00,weatherlink.com 1.10,2013-06-02 18:16:00,
2013-06-02 13:31:00,59.6,49.0,30.10,NW,324,1.0,-999.0,68,-99.99,,,0.00,weatherlink.com 1.10,2013-06-02 18:31:00,
2013-06-02 13:46:00,61.3,50.0,30.10,NNE,30,0.0,-999.0,67,-99.99,,,0.00,weatherlink.com 1.10,2013-06-02 18:46:00,
2013-06-02 14:05:00,61.4,49.0,30.10,North,10,0.0,-999.0,64,-99.99,,,0.00,weatherlink.com 1.10,2013-06-02 19:05:00,
2013-06-02 14:17:00,61.6,48.0,30.10,NNE,31,4.0,-999.0,62,-99.99,,,0.00,weatherlink.com 1.10,2013-06-02 19:17:00,
2013-06-02 14:32:00,62.0,50.0,30.10,WNW,301,5.0,-999.0,65,-99.99,,,0.00,weatherlink.com 1.10,2013-06-02 19:32:00,
2013-06-02 14:47:00,62.5,49.0,30.09,NW,308,0.0,-999.0,61,-99.99,,,0.00,weatherlink.com 1.10,2013-06-02 19:47:00,
2013-06-02 15:05:00,62.8,51.0,30.09,NNE,30,0.0,-999.0,66,-99.99,,,0.00,weatherlink.com 1.10,2013-06-02 20:05:00,
2013-06-02 15:17:00,63.3,50.0,30.09,North,5,0.0,-999.0,63,-99.99,,,0.00,weatherlink.com 1.10,2013-06-02 20:17:00,
2013-06-02 15:32:00,63.9,50.0,30.09,WNW,284,2.0,-999.0,60,-99.99,,,0.00,weatherlink.com 1.10,2013-06-02 20:32:00,
2013-06-02 15:47:00,63.8,51.0,30.09,NNW,336,0.0,-999.0,63,-99.99,,,0.00,weatherlink.com 1.10,2013-06-02 20:47:00,
2013-06-02 16:05:00,64.6,49.0,30.09,NNW,336,1.0,-999.0,58,-99.99,,,0.00,weatherlink.com 1.10,2013-06-02 21:05:00,
2013-06-02 16:17:00,63.8,50.0,30.09,NNE,24,0.0,-999.0,61,-99.99,,,0.00,weatherlink.com 1.10,2013-06-02 21:17:00,
2013-06-02 16:32:00,64.5,48.0,30.08,NW,326,0.0,-999.0,56,-99.99,,,0.00,weatherlink.com 1.10,2013-06-02 21:32:00,
2013-06-02 16:47:00,64.6,50.0,30.08,West,270,0.0,-999.0,59,-99.99,,,0.00,weatherlink.com 1.10,2013-06-02 21:47:00,
2013-06-02 17:06:00,64.7,48.0,30.08,West,277,0.0,-999.0,55,-99.99,,,0.00,weatherlink.com 1.10,2013-06-02 22:06:00,
2013-06-02 17:18:00,64.4,49.0,30.08,WNW,298,2.0,-999.0,58,-99.99,,,0.00,weatherlink.com 1.10,2013-06-02 22:18:00,
2013-06-02 17:33:00,64.8,50.0,30.07,North,355,0.0,-999.0,59,-99.99,,,0.00,weatherlink.com 1.10,2013-06-02 22:33:00,
2013-06-02 17:48:00,65.5,51.0,30.07,WNW,294,0.0,-999.0,59,-99.99,,,0.00,weatherlink.com 1.10,2013-06-02 22:48:00,
2013-06-02 18:06:00,64.2,47.0,30.07,WNW,294,0.0,-999.0,54,-99.99,,,0.00,weatherlink.com 1.10,2013-06-02 23:06:00,
2013-06-02 18:18:00,63.6,49.0,30.06,WNW,294,0.0,-999.0,59,-99.99,,,0.00,weatherlink.com 1.10,2013-06-02 23:18:00,
2013-06-02 18:33:00,62.7,48.0,30.06,WNW,294,0.0,-999.0,59,-99.99,,,0.00,weatherlink.com 1.10,2013-06-02 23:33:00,
2013-06-02 18:48:00,62.5,49.0,30.06,WNW,294,0.0,-999.0,61,-99.99,,,0.00,weatherlink.com 1.10,2013-06-02 23:48:00,
2013-06-02 19:06:00,63.8,50.0,30.06,WNW,294,0.0,-999.0,62,-99.99,,,0.00,weatherlink.com 1.10,2013-06-03 00:06:00,
2013-06-02 19:18:00,65.5,49.0,30.06,WNW,294,0.0,-999.0,55,-99.99,,,0.00,weatherlink.com 1.10,2013-06-03 00:18:00,
2013-06-02 19:33:00,65.6,48.0,30.06,NW,316,0.0,-999.0,54,-99.99,,,0.00,weatherlink.com 1.10,2013-06-03 00:33:00,
2013-06-02 19:48:00,65.0,49.0,30.06,NW,316,0.0,-999.0,57,-99.99,,,0.00,weatherlink.com 1.10,2013-06-03 00:48:00,
2013-06-02 20:06:00,64.1,49.0,30.06,NW,316,0.0,-999.0,58,-99.99,,,0.00,weatherlink.com 1.10,2013-06-03 01:06:00,
2013-06-02 20:18:00,63.0,50.0,30.06,NW,316,0.0,-999.0,62,-99.99,,,0.00,weatherlink.com 1.10,2013-06-03 01:18:00,
2013-06-02 20:34:00,60.9,50.0,30.05,NW,316,0.0,-999.0,67,-99.99,,,0.00,weatherlink.com 1.10,2013-06-03 01:34:00,
2013-06-02 20:49:00,59.3,48.0,30.05,NW,316,0.0,-999.0,67,-99.99,,,0.00,weatherlink.com 1.10,2013-06-03 01:49:00,
2013-06-02 21:07:00,58.1,49.0,30.06,NW,316,0.0,-999.0,71,-99.99,,,0.00,weatherlink.com 1.10,2013-06-03 02:07:00,
2013-06-02 21:19:00,56.8,50.0,30.06,NW,316,0.0,-999.0,79,-99.99,,,0.00,weatherlink.com 1.10,2013-06-03 02:19:00,
2013-06-02 21:34:00,55.9,48.0,30.06,NW,316,0.0,-999.0,76,-99.99,,,0.00,weatherlink.com 1.10,2013-06-03 02:34:00,
2013-06-02 21:49:00,55.4,49.0,30.07,NW,316,0.0,-999.0,78,-99.99,,,0.00,weatherlink.com 1.10,2013-06-03 02:49:00,
2013-06-02 22:07:00,54.9,47.0,30.07,NW,316,0.0,-999.0,75,-99.99,,,0.00,weatherlink.com 1.10,2013-06-03 03:07:00,
2013-06-02 22:19:00,54.3,50.0,30.07,NW,316,0.0,-999.0,84,-99.99,,,0.00,weatherlink.com 1.10,2013-06-03 03:19:00,
2013-06-02 22:34:00,53.1,48.0,30.07,NW,316,0.0,-999.0,84,-99.99,,,0.00,weatherlink.com 1.10,2013-06-03 03:34:00,
2013-06-02 22:49:00,52.4,48.0,30.07,NW,316,0.0,-999.0,86,-99.99,,,0.00,weatherlink.com 1.10,2013-06-03 03:49:00,
2013-06-02 23:07:00,52.0,48.0,30.08,NW,316,0.0,-999.0,85,-99.99,,,0.00,weatherlink.com 1.10,2013-06-03 04:07:00,
2013-06-02 23:19:00,52.3,49.0,30.07,NW,316,0.0,-999.0,87,-99.99,,,0.00,weatherlink.com 1.10,2013-06-03 04:19:00,
2013-06-02 23:34:00,50.9,48.0,30.08,NW,316,0.0,-999.0,89,-99.99,,,0.00,weatherlink.com 1.10,2013-06-03 04:34:00,
2013-06-02 23:50:00,50.0,48.0,30.08,NW,316,0.0,-999.0,91,-99.99,,,0.00,weatherlink.com 1.10,2013-06-03 04:50:00,